sat.trackr.live / text

‹ back to catalog

STARLINK-1269

NORAD 45197 · 2020-012V

PAYLOAD ACTIVE UNKNOWN

§ Identity

Operator
Country
US
Launch date
2020-02-17
Launch site
AFETR
Launch vehicle
Mass (kg)
RCS (m²)

Purposes: comms

External: N2YO · Heavens-Above · Gunter

§ Orbital elements

Epoch: 2026-09-19T11:44:40.067232Z

Period
93.30 min
Inclination
53.1507°
Eccentricity
0.0003060
Mean motion
15.43344471 rev/d
Perigee alt
434.2 km
Apogee alt
438.3 km
Semi-major
6,814.4 km
B*
1.0144e-3
RAAN
211.7230°
Arg perigee
68.0625°
Mean anomaly
292.0706°
Rev number
36,469

§ Raw data

STARLINK-12691 45197U 20012V   26262.48935263  .00045795  00000+0  10144-2 0  99902 45197  53.1507 211.7230 0003060  68.0625 292.0706 15.43344471364691

JSON: /api/v1/satellites/45197 · /tle

For live sub-satellite position, see the globe view (requires WebGL).

§ Visibility from observer

Set your observer location to see the next 7 days of passes ≥ 10°. The values pass through the URL so the page stays shareable.

No JS? Fill the form by hand. The geolocation button needs JavaScript.